Location: Betzi
(47.2343°N, 9.5260°E)
Time: 21:50:09
(UTC+00:00)

Cosmos 1975 Rocket - Pass Details

Date: 27 May 2022
Orbit: 603 x 633 km, 82.5° (Epoch: 29 June)

Event Time Altitude Azimuth Distance (km) Brightness Sun altitude
Exits shadow 00:56:44 38° 210° (SSW) 958 3.5 -18.1°
Maximum altitude 00:58:19 68° 280° (W) 681 3.1 -17.9°
Drops below altitude 10° 01:02:47 10° 4° (N) 2,023 6.8 -17.6°
Sets 01:05:04 0° 8° (N) 2,938 7.9 -17.5°
